Showing default

IRIDIUM 147, 43480

Orbit data source: Space-Track

IRIDIUM 147, 43480 is a payload satellite owned by Iridium (US) in LEO that was launched on Tue, 22 May 2018 UTC via an FALCON 9 launch vehicle from the Air Force Western Test Range (AFWTR). Payload-class satellites include a variety of spacecraft equipped with specific instruments for various scientific and technological missions. These include communications satellites like Starlink; space stations such as the ISS; scientific satellites like the Hubble; Earth observation satellites from companies like Planet Labs, Umbra, and HawkEye 360; GPS; miniature CubeSats for education and research; and military/defense satellites.

Loading next visibility...
Identifier
43480, 2018-047E
Orbit
LEO
Country
Flag of USUS
Related business
Manufacturer
OATK SSG Gilbert
Mission
Operational Commercial Communications
Bus & Motor
ELITEBUS, Unknown motor
Mass
860 kg wet, 700 kg dry
Launch date (UTC)
2018-05-22 (7 years ago)
Launch vehicle
FALCON 9
Launch site
Air Force Western Test Range (AFWTR)
Object type
Payload
Rocket body
Debris
Shape & HBR
Trap Box + 2 Pan, 4.8 m
Radar Cross Section
10.154 m², Large (>1 m²)

Expand to show TLE details & history
Last TLE update: 11 hours ago

TLE from 11 hours ago
0 IRIDIUM 147
1 43480U 18047E   25315.15132266 -.00000086  00000-0 -37807-4 0  9996
2 43480  86.4010 179.4298 0002061  86.5892 273.5540 14.34216896391235
Epoch: 2025-11-11T03:37Z
TLE epoch observation values (Epoch: 2025-11-11T03:37:54.277Z)
Latitude
Longitude
74.41165°
Altitude
780.63 km
Speed
7.464 km/s
True Right ascension
11h 57m 43s
True Declination
0° 00' 00"
Sunlit
Object was in daylight at epoch
Visualization orbit readout
Latitude
Unknown
Longitude
Unknown
Altitude
Unknown
Speed
Unknown
Apparent Right ascension
Unknown
Apparent Declination
Unknown
Sunlit
N/A
Visualization observer readout
Local Sidereal Time
10:31:53
Azimuth
Unknown
Elevation
Unknown
Doppler factor
Unknown
Orbital elements
Apogee altitude
776.109 km
Perigee altitude
773.16 km
Semi-major axis
7,152.771 km
Eccentricity
0.00021
Inclination
86.401°
RAAN
179.4298°
Arg. of periapsis
86.5892°
True anomaly
273.53043°
Mean anomaly
273.554°
Eccentric anomaly
273.54221°
Mean motion
3.58783 °/min
Orbital period
100.34 mins
BSTAR
-0.000037807
Loading maneuver chart data...
Computing Atmospheric mass density...
Loading historical data...
Loading historical data...
Loading historical data...
Loading historical data...
Loading historical data...
Loading historical data...
Loading historical data...

Documentation

Showing up to 5 results
|